Flag for Australia Weather past 2 weeks in Campbelltown, New South Wales, Australia

Now
61 °F

Passing clouds.


Feels Like: 61 °F
Forecast: 39 / 63 °F
Wind: 3 mph from North

Location: Camden Airport

Current Time: May 25, 2015 at 2:14:00 PM

Latest Report: May 25, 2015 at 12:00 PM


Visibility: N/A

Pressure: 30.42 "Hg

Humidity: 56%

Dew point: 45 °F

Location of CampbelltownLocation

Historic Weather in Campbelltown — Graph

°F

Campbelltown temperature yesterday

Maximum temperature yesterday: 65 °F (at 3:00 PM)
Minimum temperature yesterday: 36 °F (at 6:00 AM)
Average temperature yesterday: 48 °F

Past Weeks' High & Low Weather Summary

 TemperatureHumidityPressure
High74 °F (May 20, 2:00 PM)100% (May 17, 6:00 AM)30.59 "Hg (May 17, 6:00 AM)
Low36 °F (May 24, 6:00 AM)35% (May 10, 12:00 PM)29.70 "Hg (May 10, 2:00 PM)
Average55 °F73%30.21 "Hg
* Reported May 10 12:00 Noon — May 25 12:00 Noon, Campbelltown, Weather by CustomWeather, © 2015

Note: Actual official high and low records may vary slightly from our data, if they occured in-between our weather recording intervals... More about our weather records

Advertising

Campbelltown weather history for previous 24 hours

 ConditionsComfort  
Time TempWeatherWind HumidityBarometerVisibility
12:00 PM
Mon, May 25
61 °FPassing clouds.3 mph56%30.42 "HgN/A
11:00 AM58 °FCool.1 mph65%30.45 "HgN/A
9:00 AM47 °FScattered clouds.No wind96%30.49 "HgN/A
8:00 AM43 °FQuite cool.No wind99%30.47 "HgN/A
6:00 AM41 °FOvercast.No wind100%30.47 "Hg5 mi
5:00 AM39 °FChilly.No wind99%30.46 "HgN/A
3:00 AM40 °FOvercast.No wind99%30.47 "Hg4 mi
2:00 AM41 °FQuite cool.No wind100%30.48 "HgN/A
12:00 AM42 °FPassing clouds.No wind97%30.49 "Hg4 mi
11:00 PM
Sun, May 24
43 °FQuite cool.No wind97%30.50 "HgN/A
9:00 PM44 °FQuite cool.No wind93%30.49 "Hg3 mi
8:00 PM46 °FCool.No wind92%30.49 "HgN/A
6:00 PM50 °FCool.3 mph75%30.46 "HgN/A
5:00 PM58 °FRefreshingly cool.3 mph54%30.44 "HgN/A
3:00 PM65 °FMild.1 mph39%30.43 "HgN/A
2:00 PM65 °FMild.1 mph43%30.44 "HgN/A
Weather by CustomWeather, © 2015

See weather overviewHow to use our weather pages